Flag for U.S.A. Weather past 2 weeks in New Orleans, Louisiana, U.S.A.

Now
80 °F

Sunny.


Feels Like: 81 °F
Forecast: 63 / 80 °F
Wind: 3 mph from Northwest

Location: Lakefront Airport


UV Index: 7 (High)

Visibility: 10 mi


Pressure: 29.88 "Hg

Humidity: 47%

Dew point: 58 °F

Location of New OrleansLocation

Historic Weather in New Orleans

°F

New Orleans temperature yesterday

Maximum temperature yesterday: 74 °F (at 3:53 PM)
Minimum temperature yesterday: 63 °F (at 5:53 AM)
Average temperature yesterday: 69 °F

Past Weeks' High & Low Weather Summary

 TemperatureHumidityPressure
High82 °F (Apr 13, 12:53 PM)97% (Apr 12, 2:53 AM)30.25 "Hg (Apr 12, 2:53 AM)
Low48 °F (Apr 15, 8:53 AM)36% (Apr 15, 4:53 PM)29.68 "Hg (Apr 14, 5:53 PM)
Average66 °F74%30.06 "Hg
* Reported Apr 8 4:53 PM — Apr 23 4:53 PM, New Orleans, Weather by CustomWeather, © 2014

Note: Actual official high and low records may vary slightly from our data, if they occured in-between our weather recording intervals... More about our weather records

Advertising

Historic Weather Conditions — Data for Previous 24 hours

 ConditionsComfort  
Time TempWeatherWind HumidityBarometerVisibility
4:53 PM
Apr 23
80 °FSunny.6 mph51%29.88 "Hg10 mi
3:53 PM79 °FSunny.5 mph56%29.90 "Hg10 mi
2:53 PM78 °FSunny.6 mph62%29.92 "Hg10 mi
1:53 PM77 °FSunny.7 mph64%29.93 "Hg10 mi
12:53 PM75 °FSunny.8 mph74%29.95 "Hg10 mi
11:53 AM73 °FSunny.7 mph74%29.97 "Hg9 mi
10:53 AM71 °FSunny.5 mph76%29.98 "Hg9 mi
9:53 AM70 °FSunny.5 mph76%29.98 "Hg10 mi
8:53 AM70 °FSunny.6 mph76%29.97 "Hg9 mi
7:53 AM69 °FSunny.10 mph81%29.96 "Hg10 mi
6:53 AM68 °FClear.9 mph84%29.95 "Hg10 mi
5:53 AM67 °FClear.7 mph90%29.93 "Hg10 mi
4:53 AM68 °FClear.3 mph93%29.92 "Hg10 mi
3:53 AM68 °FClear.7 mph93%29.91 "Hg10 mi
2:53 AM68 °FClear.6 mph90%29.91 "Hg10 mi
1:53 AM68 °FClear.5 mph90%29.91 "Hg10 mi
12:53 AM69 °FClear.3 mph87%29.91 "Hg10 mi
11:53 PM
Apr 22
70 °FClear.3 mph84%29.92 "Hg10 mi
10:53 PM69 °FClear.6 mph90%29.92 "Hg10 mi
9:53 PM70 °FClear.7 mph87%29.92 "Hg10 mi
8:53 PM70 °FClear.5 mph87%29.90 "Hg10 mi
7:53 PM71 °FSunny.8 mph84%29.88 "Hg10 mi
6:53 PM73 °FPartly sunny.9 mph79%29.86 "Hg9 mi
Weather by CustomWeather, © 2014

See weather overview